TimeCDT,TemperatureF,Dew PointF,Humidity,Sea Level PressureIn,VisibilityMPH,Wind Direction,Wind SpeedMPH,Gust SpeedMPH,PrecipitationIn,Events,Conditions,WindDirDegrees,DateUTC
12:56 AM,28.0,21.9,78,30.25,10.0,SE,8.1,-,N/A,,Clear,140,2013-03-27 05:56:00
1:56 AM,27.0,21.0,78,30.25,10.0,East,5.8,-,N/A,,Clear,100,2013-03-27 06:56:00
2:56 AM,24.1,19.0,81,30.24,10.0,SE,6.9,-,N/A,,Clear,140,2013-03-27 07:56:00
3:56 AM,24.1,19.9,84,30.22,10.0,East,4.6,-,N/A,,Clear,100,2013-03-27 08:56:00
4:56 AM,24.1,19.9,84,30.21,10.0,ESE,5.8,-,N/A,,Clear,120,2013-03-27 09:56:00
5:56 AM,25.0,21.0,85,30.20,10.0,SE,8.1,-,N/A,,Clear,140,2013-03-27 10:56:00
6:56 AM,24.1,19.9,84,30.23,10.0,SE,8.1,-,N/A,,Clear,130,2013-03-27 11:56:00
7:56 AM,26.1,21.0,81,30.24,10.0,ESE,8.1,-,N/A,,Clear,110,2013-03-27 12:56:00
8:56 AM,30.9,23.0,72,30.25,10.0,SE,12.7,-,N/A,,Overcast,130,2013-03-27 13:56:00
9:56 AM,35.1,23.0,61,30.25,10.0,SSE,16.1,-,N/A,,Clear,150,2013-03-27 14:56:00
10:56 AM,41.0,23.0,49,30.23,10.0,SE,15.0,24.2,N/A,,Overcast,130,2013-03-27 15:56:00
11:56 AM,43.0,24.1,47,30.23,10.0,SE,17.3,-,N/A,,Partly Cloudy,130,2013-03-27 16:56:00
12:56 PM,46.9,26.1,44,30.22,10.0,SSE,12.7,-,N/A,,Partly Cloudy,150,2013-03-27 17:56:00
1:56 PM,50.0,26.1,39,30.19,10.0,SSE,15.0,21.9,N/A,,Clear,160,2013-03-27 18:56:00
2:56 PM,51.1,25.0,36,30.18,10.0,South,17.3,25.3,N/A,,Partly Cloudy,170,2013-03-27 19:56:00
3:56 PM,52.0,27.0,38,30.17,10.0,South,15.0,18.4,N/A,,Clear,170,2013-03-27 20:56:00
4:56 PM,52.0,27.0,38,30.17,10.0,SSE,10.4,-,N/A,,Partly Cloudy,160,2013-03-27 21:56:00
5:56 PM,51.1,27.0,39,30.17,10.0,SE,9.2,-,N/A,,Clear,130,2013-03-27 22:56:00
6:56 PM,48.9,28.0,44,30.19,10.0,SE,12.7,-,N/A,,Clear,140,2013-03-27 23:56:00
7:56 PM,43.0,28.0,56,30.21,10.0,SE,6.9,-,N/A,,Clear,130,2013-03-28 00:56:00
8:56 PM,39.0,28.0,65,30.22,10.0,SE,8.1,-,N/A,,Clear,130,2013-03-28 01:56:00
9:56 PM,37.9,28.0,68,30.23,10.0,SE,9.2,-,N/A,,Clear,130,2013-03-28 02:56:00
10:56 PM,37.9,28.0,68,30.23,10.0,SSE,10.4,-,N/A,,Clear,150,2013-03-28 03:56:00
11:56 PM,39.0,28.9,67,30.23,10.0,SE,13.8,-,N/A,,Clear,140,2013-03-28 04:56:00